Regional Weather Roundup
Issued by NWS

Home | Current Version | Previous Version | Text Only | Print | Product List | Glossary Off
Versions: 1 2 3 4 5 6 7 8 9 10 11 12 13 14 15 16 17 18 19 20 21 22 23 24 25 26 27 28

000
ASUS45 KCYS 251010
RWRWY

WYOMING REGIONAL WEATHER ROUNDUP
NATIONAL WEATHER SERVICE CHEYENNE WY
400 AM MDT WED APR 25 2018

NOTE:  "FAIR" INDICATES FEW OR NO CLOUDS BELOW 12,000 FEET
WITH NO SIGNIFICANT WEATHER AND/OR OBSTRUCTIONS TO VISIBILITY.

WYZ001-251100-
YELLOWSTONE NATIONAL PARK

CITY           SKY/WX    TMP DP  RH WIND       PRES   REMARKS
LK YELLOWSTONE   N/A     14  11  87 CALM      30.41S
W YELLOWSTONE  NOT AVBL

$$
WYZ002>013-054>058-071-098>099-251100-
NORTHERN WYOMING

CITY           SKY/WX    TMP DP  RH WIND       PRES   REMARKS
JACKSON        FAIR      22  18  85 NE5       30.39S WCI  16
CODY           FAIR      36  20  52 SW5       30.29R WCI  32
GREYBULL       FAIR      36  30  79 SE7       30.30F WCI  30
WORLAND        FAIR      31  25  78 CALM      30.31S
SHERIDAN       FAIR      26  22  84 N5        30.23F WCI  20
BUFFALO        FAIR      29   9  43 CALM      30.23F
GILLETTE       FAIR      29  23  78 S12       30.27F WCI  19
HULETT         FAIR      36  27  69 S14       30.29F WCI  27
NEWCASTLE      FAIR      27  21  80 E3        30.35F

$$
WYZ014>020-022>026-101>103-251100-
CENTRAL WYOMING

CITY           SKY/WX    TMP DP  RH WIND       PRES   REMARKS
BIG PINEY      FAIR      19  15  84 NW5       30.40F WCI  12
PINEDALE       FAIR      19  19 100 W6        30.42S WCI  11
DUBOIS         FAIR      28  19  69 W14       30.32F WCI  17
LANDER         FAIR      28  20  71 SE5       30.32F WCI  23
RIVERTON       FAIR      29  20  69 S5        30.33F WCI  24
CASPER         FAIR      27  22  81 SW10      30.34F WCI  17
DOUGLAS        FAIR      19  18  95 W3        30.35F

$$
WYZ021-027>030-104>119-251100-
SOUTHERN WYOMING

CITY           SKY/WX    TMP DP  RH WIND       PRES   REMARKS
EVANSTON       FAIR      30  19  63 E8        30.35F WCI  22
KEMMERER       FAIR      28  19  69 NW7       30.38F WCI  21
FORT BRIDGER   FAIR      28  19  69 NW3       30.40S
ROCK SPRINGS   FAIR      26  16  65 S8        30.39S WCI  18
DIXON          FAIR      21  17  83 CALM      30.42S
RAWLINS        FAIR      14  10  84 CALM      30.38F
SARATOGA       FAIR      19  16  86 S6        30.38F WCI  11
LARAMIE        FAIR      18  16  92 S5        30.35F WCI  11
CHEYENNE       FAIR      25  23  92 W6        30.34F WCI  18
TORRINGTON     FAIR      28  27  96 CALM      30.35F
PINE BLUFFS    FAIR      23  21  93 MISG      30.37S

$$




USA.gov is the U.S. government's official web portal to all federal, state and local government web resources and services.